| time (UTC) | temp C | wind direction | speed KPH | gust KPH | rain 1hr cm | rain 24hr cm | rain mn cm | humidity % | barometer mb |
| 20260507085013 | 39 | 270 | 0.0 | 0.0 | 0.00 | 0.00 | 0.00 | 11 | 1011.8 |
| 20260507083411 | 38 | 270 | 0.0 | 0.0 | 0.00 | 0.00 | 0.00 | 13 | 1011.8 |
| 20260507081808 | 29 | 270 | 0.0 | 0.0 | 0.00 | 0.00 | 0.00 | 23 | 1012.3 |
| 20260507080203 | 25 | 270 | 0.0 | 0.0 | 0.00 | 0.00 | 0.00 | 27 | 1012.3 |
| 20260507072803 | 30 | 0 | 0.0 | 0.0 | 0.00 | 0.00 | 0.00 | 21 | 1012.1 |
| 20260507065517 | 40 | 0 | 0.0 | 0.0 | 0.00 | 0.00 | 0.00 | 12 | 1011.8 |
| 20260507063913 | 38 | 270 | 0.0 | 0.0 | 0.00 | 0.00 | 0.00 | 14 | 1011.9 |
| 20260507062309 | 37 | 270 | 0.0 | 0.0 | 0.00 | 0.00 | 0.00 | 16 | 1012.0 |
| 20260507060705 | 37 | 225 | 0.0 | 0.0 | 0.00 | 0.00 | 0.00 | 16 | 1011.9 |
| 20260507052521 | 35 | 270 | 0.0 | 0.0 | 0.00 | 0.00 | 0.00 | 20 | 1011.7 |
| 20260507050917 | 31 | 270 | 0.0 | 0.0 | 0.00 | 0.00 | 0.00 | 25 | 1011.9 |
| 20260507045316 | 30 | 270 | 0.0 | 0.0 | 0.00 | 0.00 | 0.00 | 28 | 1011.9 |
| 20260507043704 | 26 | 270 | 0.0 | 0.0 | 0.00 | 0.00 | 0.00 | 35 | 1011.9 |
| 20260507033911 | 12 | 0 | 0.0 | 0.0 | 0.00 | 0.00 | 0.00 | 77 | 1012.0 |
| 20260507032308 | 12 | 0 | 0.0 | 0.0 | 0.00 | 0.00 | 0.00 | 79 | 1011.9 |
| 20260507030705 | 11 | 270 | 0.0 | 0.0 | 0.00 | 0.00 | 0.00 | 79 | 1011.8 |
| 20260507024216 | 11 | 315 | 0.0 | 0.0 | 0.00 | 0.00 | 0.00 | 79 | 1011.7 |
| 20260507022611 | 11 | 270 | 0.0 | 0.0 | 0.00 | 0.00 | 0.00 | 79 | 1011.6 |
| 20260507021008 | 11 | 0 | 0.0 | 0.0 | 0.00 | 0.00 | 0.00 | 78 | 1011.5 |
| 20260507015404 | 11 | 0 | 0.0 | 0.0 | 0.00 | 0.00 | 0.00 | 78 | 1011.5 |
| 20260507012408 | 11 | 0 | 0.0 | 0.0 | 0.00 | 0.00 | 0.00 | 78 | 1011.4 |
| 20260507010703 | 12 | 0 | 0.0 | 0.0 | 0.00 | 0.00 | 0.00 | 78 | 1011.4 |
| 20260507004513 | 12 | 225 | 0.0 | 0.0 | 0.00 | 0.00 | 0.00 | 77 | 1011.5 |
| 20260507003009 | 12 | 270 | 0.0 | 0.0 | 0.00 | 0.00 | 0.00 | 76 | 1011.4 |
| 20260506234507 | 12 | 270 | 0.0 | 0.0 | 0.00 | 0.00 | 0.00 | 75 | 1011.4 |
| 20260506233005 | 12 | 270 | 0.0 | 0.0 | 0.00 | 0.00 | 0.00 | 75 | 1011.5 |
| 20260506231504 | 12 | 0 | 0.0 | 0.0 | 0.00 | 0.00 | 0.00 | 75 | 1011.5 |
| 20260506230006 | 12 | 0 | 0.0 | 0.0 | 0.00 | 0.00 | 0.00 | 75 | 1011.6 |
| 20260506224309 | 12 | 0 | 0.0 | 0.0 | 0.00 | 0.00 | 0.00 | 74 | 1011.5 |
| 20260506222703 | 12 | 270 | 0.0 | 0.0 | 0.00 | 0.00 | 0.00 | 75 | 1011.4 |
| 20260506212308 | 12 | 0 | 0.0 | 0.0 | 0.00 | 0.00 | 0.00 | 71 | 1011.5 |
| 20260506210704 | 13 | 0 | 0.0 | 0.0 | 0.00 | 0.00 | 0.00 | 68 | 1011.6 |
| 20260506204219 | 13 | 270 | 0.0 | 0.0 | 0.00 | 0.00 | 0.00 | 63 | 1011.3 |
| 20260506202617 | 13 | 270 | 0.0 | 0.0 | 0.00 | 0.00 | 0.00 | 62 | 1011.3 |
| 20260506201017 | 13 | 270 | 0.0 | 0.0 | 0.00 | 0.00 | 0.00 | 64 | 1011.3 |
| 20260506195411 | 13 | 225 | 0.0 | 0.0 | 0.00 | 0.00 | 0.00 | 63 | 1011.3 |
| 20260506193308 | 13 | 270 | 0.0 | 0.0 | 0.00 | 0.00 | 0.00 | 60 | 1011.1 |
| 20260506191704 | 14 | 270 | 0.0 | 0.0 | 0.00 | 0.00 | 0.00 | 60 | 1010.9 |
| 20260506190012 | 14 | 270 | 0.0 | 0.0 | 0.00 | 0.00 | 0.00 | 60 | 1010.7 |
| 20260506184008 | 14 | 270 | 0.0 | 0.0 | 0.00 | 0.00 | 0.00 | 61 | 1010.5 |
| 20260506182403 | 15 | 270 | 0.0 | 0.0 | 0.00 | 0.00 | 0.00 | 61 | 1010.4 |
| 20260506180007 | 15 | 0 | 0.0 | 0.0 | 0.00 | 0.00 | 0.00 | 58 | 1010.2 |
| 20260506173404 | 16 | 0 | 0.0 | 0.0 | 0.00 | 0.00 | 0.00 | 53 | 1010.0 |
| 20260506163909 | 18 | 270 | 0.0 | 0.0 | 0.00 | 0.00 | 0.00 | 48 | 1009.7 |
| 20260506162307 | 19 | 315 | 0.0 | 0.0 | 0.00 | 0.00 | 0.00 | 43 | 1009.5 |
| 20260506152908 | 21 | 315 | 0.0 | 0.0 | 0.00 | 0.00 | 0.00 | 27 | 1009.5 |
| 20260506151304 | 21 | 270 | 0.0 | 0.0 | 0.00 | 0.00 | 0.00 | 28 | 1009.5 |
| 20260506144130 | 22 | 270 | 0.0 | 0.0 | 0.00 | 0.00 | 0.00 | 24 | 1009.6 |
| 20260506142527 | 21 | 225 | 0.0 | 0.0 | 0.00 | 0.00 | 0.00 | 24 | 1009.6 |
| 20260506135421 | 22 | 0 | 0.0 | 0.0 | 0.00 | 0.00 | 0.00 | 21 | 1009.8 |
| 20260506130714 | 22 | 225 | 0.0 | 0.0 | 0.00 | 0.00 | 0.00 | 21 | 1009.7 |
| 20260506123508 | 21 | 0 | 0.0 | 0.0 | 0.00 | 0.00 | 0.00 | 22 | 1009.9 |
| 20260506121904 | 22 | 270 | 0.0 | 0.0 | 0.00 | 0.00 | 0.00 | 22 | 1010.0 |
| 20260506114504 | 22 | 270 | 0.0 | 0.0 | 0.00 | 0.00 | 0.00 | 21 | 1010.3 |
| 20260506112918 | 22 | 315 | 0.0 | 0.0 | 0.00 | 0.00 | 0.00 | 22 | 1010.4 |
| 20260506105713 | 25 | 270 | 0.0 | 0.0 | 0.00 | 0.00 | 0.00 | 20 | 1010.5 |
| 20260506104010 | 31 | 0 | 0.0 | 0.0 | 0.00 | 0.00 | 0.00 | 15 | 1010.3 |
| 20260506102407 | 31 | 315 | 0.0 | 0.0 | 0.00 | 0.00 | 0.00 | 16 | 1010.3 |
| 20260506100805 | 33 | 225 | 0.0 | 0.0 | 0.00 | 0.00 | 0.00 | 13 | 1010.3 |
| 20260506092904 | 36 | 270 | 0.0 | 0.0 | 0.00 | 0.00 | 0.00 | 13 | 1010.4 |